Theta_e
348 348 349 348 349 347 348 348 348 349 348 349 348 348 349 349 349 349 350 350 351 352 352 352 352 353 353 354 354 355 355 356 357 357 356 356 356 355 354 353 352 352 352 351 351 349 347 345 343 341 339 338 338 338 338 338 336 333 332 331 331 330 328 326 325 325 326 328 329 330 331 332 331 333 333 334 335 338 344 340 340 340 340 339 337
348 348 348 348 348 347 348 348 348 349 348 348 348 348 348 350 350 350 348 350 352 352 352 353 353 353 352 352 353 354 355 355 356 356 356 355 355 356 355 353 352 352 351 351 351 351 349 346 345 344 341 339 338 338 338 338 338 335 333 332 331 331 330 329 326 326 326 326 329 331 331 333 331 332 333 333 334 336 336 338 340 340 339 339 338
348 349 348 348 347 348 348 348 348 348 348 348 348 349 349 349 351 350 350 349 352 353 353 353 353 353 352 352 352 353 354 354 355 355 355 355 355 355 355 354 353 352 351 351 351 351 349 348 347 346 344 340 339 339 338 338 338 337 336 335 333 332 332 331 328 326 326 327 328 330 331 332 331 332 333 334 335 335 334 336 338 339 340 338 338
348 348 348 348 348 348 347 348 348 348 348 348 348 349 349 349 351 351 351 351 350 353 354 353 353 352 352 352 352 352 353 354 354 354 355 355 355 355 355 355 354 354 353 352 351 351 350 348 348 347 346 343 342 340 339 338 337 337 337 335 335 334 333 333 332 329 328 327 328 330 331 330 332 333 333 335 334 334 334 335 337 337 337 338 338
347 348 348 348 348 347 347 348 347 348 348 348 349 349 350 350 350 351 352 351 351 351 353 354 353 353 352 352 351 352 353 353 353 353 354 355 355 355 355 354 354 354 354 353 355 351 351 350 350 348 346 344 344 342 341 339 338 337 337 336 335 335 335 334 333 332 329 328 329 329 331 331 331 332 332 332 332 333 333 334 335 335 336 337 338
348 347 348 348 348 348 348 348 348 348 348 349 349 350 350 350 350 350 351 352 352 352 351 353 354 353 353 353 352 352 352 353 353 353 354 354 355 355 355 355 355 354 354 354 353 353 351 351 351 349 347 345 345 345 343 341 340 338 337 337 336 335 334 334 334 333 331 330 329 329 327 331 330 331 331 332 331 331 331 333 332 333 332 333 335
348 348 348 348 348 348 348 348 348 349 349 349 350 350 350 350 350 349 350 351 352 352 352 352 353 353 353 353 353 353 352 353 353 353 353 354 354 354 354 355 354 354 354 354 354 354 353 352 351 350 348 347 346 346 344 343 342 340 340 338 337 334 334 333 334 333 332 331 330 330 329 330 331 331 330 332 333 332 330 329 330 333 332 332 332
348 348 348 347 347 348 349 349 349 349 350 350 350 350 351 350 350 350 350 349 349 351 353 353 353 353 353 353 353 353 353 352 352 353 353 353 353 353 354 354 354 354 354 354 355 354 354 354 353 352 350 349 348 347 346 344 343 341 341 340 338 335 334 334 332 333 332 332 331 331 329 329 327 331 330 329 329 330 332 330 328 329 330 332 332
349 349 348 348 348 349 349 350 350 350 351 350 350 350 351 351 351 351 350 349 349 349 351 353 353 353 353 353 353 353 353 352 353 353 352 353 353 353 353 353 353 353 353 354 354 354 354 354 354 353 353 349 343 343 343 341 345 342 342 341 339 337 335 334 333 332 332 332 332 331 330 329 329 329 329 329 329 330 330 331 331 331 331 330 333
349 349 349 349 349 349 350 350 350 350 350 349 350 350 350 351 351 350 350 349 349 349 348 349 351 353 352 353 353 354 353 354 346 335 339 353 353 353 353 353 353 353 352 352 353 353 354 354 355 349 343 340 339 337 335 334 335 343 345 342 341 339 337 335 333 333 332 332 332 332 331 330 331 331 331 332 333 332 329 330 329 331 327 330 331
350 349 349 350 350 350 350 350 350 349 350 350 350 350 350 350 350 350 350 349 349 348 348 347 347 350 351 352 352 353 354 353 337 331 331 334 349 353 353 353 353 353 353 352 352 352 353 354 354 353 346 341 342 334 334 333 332 332 335 338 339 342 339 336 335 334 333 332 333 332 332 332 332 333 332 333 333 332 332 331 330 330 329 327 327
351 350 351 351 351 351 351 351 350 350 350 350 350 350 350 350 349 349 349 349 349 349 348 347 347 347 348 350 351 352 352 339 333 330 330 329 334 353 353 353 353 353 353 353 353 353 352 353 353 354 354 353 352 349 340 332 330 330 331 332 333 333 335 340 339 336 334 333 333 333 333 332 333 334 333 333 333 333 332 331 330 329 328 327 328
351 351 352 352 351 352 351 351 351 351 350 350 351 350 350 349 349 349 348 349 349 348 347 347 347 347 347 347 348 350 351 337 331 329 329 328 328 337 353 353 353 352 353 353 353 353 353 352 352 353 354 345 349 352 351 349 333 328 328 330 330 330 330 330 333 342 340 336 335 335 334 335 334 334 335 335 334 332 331 330 331 330 330 329 329
352 352 352 352 352 352 352 352 351 351 352 351 351 351 350 349 349 350 349 349 348 348 348 347 347 346 347 346 347 348 349 337 329 326 326 326 327 330 349 352 353 353 353 353 354 353 353 353 352 352 353 353 352 352 352 351 351 347 340 338 338 338 330 327 327 328 337 341 339 337 338 338 336 337 338 336 334 332 332 331 332 331 330 330 332
352 352 353 353 353 353 353 352 352 352 352 352 351 351 350 350 350 350 350 349 348 347 347 347 347 347 347 347 347 347 348 334 328 324 323 323 324 326 345 350 352 353 353 353 354 354 354 354 353 352 352 352 353 351 351 351 350 349 348 346 343 343 343 342 339 337 337 338 340 341 342 341 340 340 340 338 337 336 336 335 334 334 334 334 332
352 353 353 354 354 354 353 353 352 353 352 352 351 351 351 350 350 350 350 350 349 349 348 348 347 347 347 347 347 346 348 332 326 324 322 321 323 335 342 347 350 352 353 353 354 354 354 354 354 353 353 352 345 334 339 351 350 349 348 348 347 346 346 338 336 337 341 342 342 342 343 344 337 342 342 340 338 338 339 339 336 333 331 330 330
352 353 354 354 355 355 355 354 353 353 353 352 351 351 351 351 351 351 350 349 348 348 347 347 348 347 347 347 346 346 347 336 325 322 320 320 322 338 342 346 349 350 352 353 354 354 354 354 354 354 353 353 342 332 330 333 349 349 349 348 348 348 348 348 334 329 329 328 328 330 330 331 330 328 326 327 335 337 337 334 332 334 331 329 330
352 354 355 356 356 356 356 355 354 353 353 352 351 351 352 352 351 352 350 349 348 348 348 347 347 347 346 346 347 346 347 339 324 319 318 318 325 340 343 345 347 349 350 352 354 354 355 347 354 354 353 353 337 330 329 332 344 348 348 348 347 347 348 349 348 342 328 326 327 328 328 329 329 328 328 327 324 328 337 333 335 334 332 331 329
350 352 355 357 357 357 357 356 355 354 353 353 353 352 352 352 352 352 351 350 349 349 348 347 347 347 347 347 342 345 347 341 323 319 317 316 326 342 345 345 346 348 349 350 352 354 354 350 344 343 348 347 333 328 326 330 345 347 348 348 347 347 348 349 349 348 346 342 339 337 337 335 336 336 337 329 328 336 335 337 338 336 333 332 332
350 351 353 355 357 358 358 357 356 355 354 354 354 353 353 352 352 351 351 350 349 349 348 347 346 347 347 347 348 347 347 348 339 318 316 315 318 342 346 346 346 347 348 349 350 351 353 354 348 330 326 327 327 324 323 321 341 348 349 347 347 346 350 350 350 349 348 347 347 345 342 342 342 342 341 340 339 338 335 338 339 339 335 333 333
349 350 351 352 354 356 357 357 356 356 356 355 355 354 353 352 351 351 350 350 350 348 348 347 347 347 347 348 348 349 350 350 345 317 314 314 315 325 346 347 348 348 349 348 350 350 351 352 353 338 326 322 321 320 320 318 322 344 349 349 349 349 346 350 349 345 346 347 347 347 346 344 344 343 343 342 341 341 339 335 340 341 338 335 334
357 351 349 351 352 354 355 356 357 357 357 356 354 353 353 353 352 351 350 350 348 348 348 347 347 346 347 347 347 348 351 344 352 320 315 313 314 315 340 349 349 350 349 350 350 350 351 352 353 342 329 323 320 317 317 318 318 331 342 330 330 329 342 347 345 343 344 344 344 343 344 345 345 345 344 343 342 342 342 341 338 340 341 340 337
353 351 348 349 351 352 353 354 355 357 356 356 354 353 353 352 351 351 349 348 348 347 347 347 346 346 346 346 347 348 349 348 335 337 315 313 312 312 320 336 333 348 351 350 350 351 353 353 352 338 326 319 315 315 314 315 315 324 319 320 321 323 326 339 340 338 339 340 340 340 341 343 343 343 344 343 344 344 343 343 342 340 340 341 342
351 347 347 347 349 351 353 354 355 356 356 356 355 353 352 352 352 351 350 348 347 347 346 347 346 345 345 345 346 347 349 350 336 329 329 313 313 312 313 318 326 343 350 352 353 353 353 354 350 332 322 315 311 311 312 312 323 316 313 315 316 318 328 332 337 338 337 336 335 336 337 339 341 342 342 344 345 345 345 344 343 343 341 340 341
351 351 345 347 349 351 352 353 354 355 356 355 354 353 352 352 351 351 350 349 348 347 346 347 346 346 345 345 346 347 350 350 351 335 324 318 313 312 312 314 316 319 342 351 352 353 336 316 312 314 315 314 313 313 313 312 310 310 311 312 319 327 331 332 335 337 334 333 332 334 335 337 339 341 343 344 345 345 344 344 344 343 343 343 341
352 353 347 345 348 352 352 352 354 355 355 356 355 354 353 353 352 351 351 350 349 348 348 347 347 347 346 347 346 348 350 351 352 350 334 326 319 313 314 314 316 318 323 331 322 317 313 312 313 317 323 327 332 334 336 336 325 319 315 317 327 330 332 333 335 335 333 333 333 333 335 337 338 340 341 340 339 338 339 340 340 339 340 339 339
353 350 346 345 346 351 353 353 354 355 355 355 355 355 355 354 353 351 352 352 350 350 349 349 348 348 348 348 349 349 350 350 352 345 340 337 334 329 321 321 318 318 323 329 326 331 332 332 333 325 323 322 323 322 325 329 332 333 332 332 332 332 332 334 335 335 334 335 334 335 336 337 338 337 336 336 336 337 338 337 338 338 338 338 337
347 344 346 346 347 350 352 361 358 355 356 356 355 355 355 356 354 352 353 353 352 351 352 351 349 349 350 350 350 350 349 348 344 342 338 339 339 336 332 332 330 328 329 332 334 336 337 332 329 335 335 335 334 334 334 333 332 331 331 332 331 332 334 332 333 334 336 337 336 336 335 336 336 337 337 336 336 337 337 336 336 337 337 337 334
345 343 344 347 348 352 352 356 356 347 331 320 313 311 314 321 337 347 333 329 351 357 355 353 353 353 354 353 351 349 345 345 343 316 330 326 334 336 334 334 335 333 331 324 334 331 330 331 331 332 333 333 331 333 331 330 331 331 331 332 330 331 331 330 329 329 331 332 333 335 335 335 334 335 336 336 336 337 338 337 337 336 337 337 334
342 343 343 343 350 352 355 356 349 341 336 328 323 319 312 303 305 321 325 321 310 307 328 353 357 355 341 321 326 348 351 346 304 299 299 299 300 304 305 309 314 323 316 318 328 330 329 330 330 330 330 329 328 327 327 326 326 326 326 323 324 324 324 323 323 324 327 327 330 331 331 332 332 333 333 333 335 336 337 332 336 337 335 334 333
340 341 343 343 342 350 354 353 346 341 336 332 330 328 325 318 301 300 306 307 302 298 301 313 328 332 340 325 312 304 305 300 298 297 298 299 299 299 300 301 302 304 310 328 330 328 328 327 326 326 325 325 325 325 324 323 323 323 324 324 324 323 322 323 323 322 323 323 323 324 325 326 327 328 328 329 330 332 333 334 336 336 335 334 333
339 339 340 342 344 345 351 350 344 339 335 333 332 330 328 325 321 306 300 303 302 300 299 299 301 305 310 315 316 314 302 297 297 297 297 298 298 297 297 299 300 303 308 315 327 326 326 325 325 324 322 322 320 320 320 320 321 321 322 323 323 324 323 323 323 324 324 323 323 322 323 323 324 324 325 326 325 328 329 330 332 333 334 334 334
342 340 339 341 342 350 349 346 342 338 335 333 331 331 329 327 324 322 317 304 302 301 300 299 300 301 302 302 305 306 303 299 298 299 299 299 299 299 299 300 302 308 313 324 326 325 324 323 321 318 317 317 318 317 319 320 320 322 323 324 324 325 325 324 322 323 322 322 321 321 321 321 321 321 322 322 323 324 325 326 328 329 330 330 330
343 343 340 340 341 343 345 344 341 337 334 332 330 327 327 326 325 324 325 326 325 315 308 303 300 301 298 298 298 298 299 299 299 299 299 300 301 304 306 310 302 303 313 325 323 320 317 317 315 314 315 316 317 318 319 321 322 324 325 325 325 325 324 324 323 321 321 321 321 320 320 321 321 321 322 322 324 324 324 325 326 326 327 328 329
337 343 347 344 337 339 341 340 337 333 332 330 329 328 328 329 330 328 326 325 325 324 323 323 308 301 310 304 297 298 298 298 299 300 300 301 302 305 311 326 325 323 321 319 318 317 316 315 316 317 316 316 318 320 323 324 325 325 325 325 324 324 323 322 322 322 321 321 321 320 320 320 321 321 321 321 322 322 323 324 326 327 328 329 329
337 337 336 337 336 336 336 335 333 330 328 328 330 331 332 331 328 326 325 328 326 323 321 319 317 309 302 297 296 296 296 296 296 297 296 296 295 305 324 321 321 320 319 316 316 315 314 315 315 316 315 318 322 324 325 326 325 325 324 323 322 322 322 322 320 320 320 321 320 320 318 321 321 321 322 322 322 322 323 324 325 325 326 327 328
332 334 335 334 334 335 335 333 331 330 330 329 330 330 331 330 330 329 329 328 327 325 322 323 323 323 318 318 309 298 295 296 296 295 295 296 304 320 322 320 319 318 318 315 315 314 314 317 315 316 318 322 324 325 325 325 325 324 320 322 322 321 321 320 319 319 319 319 320 320 320 320 320 320 319 318 319 321 323 324 325 324 324 323 321
328 329 331 334 334 334 334 333 333 332 332 332 332 332 331 330 331 331 330 327 327 325 323 324 324 322 322 321 325 319 312 304 305 308 309 311 317 321 321 321 319 318 316 316 316 317 316 314 314 318 322 323 325 326 325 324 323 323 322 321 321 320 316 318 318 317 317 318 318 318 318 318 319 319 318 317 317 317 318 319 321 322 324 323 324
327 323 323 325 328 332 332 333 333 333 333 333 332 332 332 331 330 328 325 324 322 322 321 319 318 318 318 319 321 322 322 322 321 319 319 320 320 320 320 319 319 317 317 315 316 316 316 317 319 321 323 325 325 324 323 323 322 321 321 321 320 319 317 316 316 316 316 316 316 317 317 317 317 318 318 317 317 317 317 317 318 320 322 324 326
326 325 324 324 326 326 329 331 330 330 331 330 331 332 330 328 324 323 322 321 319 318 316 315 314 313 315 317 320 323 322 321 321 320 320 320 321 321 321 320 319 319 320 320 319 320 321 322 322 321 323 323 323 322 321 321 321 320 320 320 318 317 316 315 315 315 315 316 316 316 316 315 316 316 317 317 317 317 316 316 316 316 318 320 322
325 326 327 323 323 326 328 327 326 326 326 327 327 327 326 325 324 324 322 320 319 318 316 314 312 311 309 306 305 310 320 320 320 321 322 322 323 323 322 321 321 321 322 323 323 323 324 323 324 323 323 321 321 321 321 321 320 320 319 318 318 317 316 315 314 315 315 315 315 315 315 315 315 314 313 314 312 314 315 315 315 315 314 314 314
323 322 322 322 322 323 323 323 323 325 325 325 323 323 323 322 321 320 320 319 318 316 313 312 311 311 306 303 301 303 314 317 317 317 318 319 320 320 321 322 322 322 321 321 322 323 325 326 325 323 322 321 321 321 321 321 320 319 318 317 317 316 315 314 314 314 314 314 314 314 314 314 314 314 314 310 313 313 313 313 313 314 314 314 313
323 322 322 322 321 320 320 319 320 319 319 320 320 322 321 318 317 317 316 315 314 313 311 310 310 311 309 305 306 306 312 313 315 314 315 315 315 316 316 317 316 316 315 315 315 315 316 317 319 320 319 318 317 318 319 319 319 319 317 316 316 315 314 313 313 313 314 314 313 313 313 313 313 313 313 313 313 312 311 311 311 311 312 313 313
321 320 320 319 319 318 318 317 317 318 318 319 318 317 316 315 315 314 313 312 311 311 310 309 310 309 308 307 306 307 309 310 310 311 312 313 312 313 313 312 311 310 310 310 309 310 310 310 311 311 311 311 311 313 315 317 318 317 315 314 313 313 313 312 312 312 313 313 313 312 312 312 312 313 313 313 312 311 311 312 311 310 310 311 312
318 317 316 315 315 315 314 315 315 314 315 314 312 312 314 313 312 312 311 310 310 309 309 309 308 308 307 307 307 307 306 307 308 309 308 309 309 310 310 309 307 306 306 306 306 306 306 306 307 307 307 307 307 308 309 311 312 312 312 311 309 309 309 309 309 311 313 312 312 312 311 311 310 311 313 312 312 312 312 311 311 311 308 308 308
316 316 315 314 314 314 313 313 314 312 311 310 310 309 309 309 309 309 309 309 308 307 307 307 306 306 306 305 305 306 305 305 305 306 306 307 307 307 307 307 306 305 304 304 303 303 303 304 304 304 304 304 304 304 304 305 307 307 306 305 305 304 304 304 305 308 311 311 312 311 311 311 311 311 315 312 311 312 312 312 312 311 310 308 308
314 314 314 314 313 313 313 313 311 310 309 309 309 308 307 308 308 308 309 308 307 306 305 305 304 304 303 303 303 303 303 303 303 303 304 304 305 305 305 305 304 304 303 302 302 302 302 301 301 302 302 302 302 301 301 302 304 304 303 302 300 299 298 298 299 304 309 311 311 309 310 310 310 310 311 311 310 310 311 311 311 311 311 310 310
311 312 312 312 311 311 311 311 311 311 308 308 307 307 306 306 305 305 304 304 304 304 304 303 303 303 303 302 303 302 302 302 302 303 303 302 302 303 303 303 302 301 301 300 300 300 300 299 299 299 299 299 299 299 299 300 301 301 300 299 298 297 296 296 297 301 303 304 309 309 309 309 309 310 310 310 309 309 308 309 309 310 310 310 310
309 309 308 309 309 308 308 307 308 306 306 306 305 304 304 303 303 303 303 302 302 302 301 301 301 302 302 302 302 301 301 301 299 300 300 301 302 301 301 302 301 301 300 299 298 298 298 298 298 299 298 297 297 297 298 298 298 298 297 296 295 294 292 293 295 298 297 300 306 309 309 309 309 309 309 310 309 308 307 307 307 307 307 308 308
307 308 307 307 306 306 306 305 304 303 303 303 302 301 301 300 300 300 299 299 298 298 298 299 299 299 299 299 299 299 298 298 297 298 298 298 299 299 299 299 299 299 299 299 298 298 297 297 296 296 297 297 297 297 297 297 296 296 295 294 292 291 291 292 294 296 297 298 300 305 309 308 308 308 309 309 309 309 307 307 307 307 306 305 305
308 306 305 304 303 303 302 301 300 300 300 299 298 297 297 296 297 297 296 296 295 295 296 295 296 296 297 297 298 297 296 296 296 296 296 296 297 297 297 297 297 297 297 297 297 297 297 296 296 296 295 295 295 296 296 296 296 295 294 292 290 290 290 290 292 291 292 295 299 304 308 309 308 309 308 308 308 309 311 312 308 306 306 306 306
Wind_Speed
16 15 14 14 14 14 14 12 13 11 11 11 11 11 10 10 10 10 6 8 8 9 9 10 10 10 10 9 9 9 9 9 8 7 8 8 7 7 6 7 8 7 6 6 6 6 7 7 8 7 5 6 6 6 5 5 4 5 4 5 6 5 6 6 7 10 5 4 4 5 3 3 4 6 8 8 7 7 8 9 8 8 8 8 8
15 14 13 13 15 14 14 13 13 11 12 12 12 11 10 10 10 7 9 9 8 10 10 9 9 10 10 10 10 9 9 10 9 8 8 8 8 7 7 8 8 8 7 8 7 7 7 8 8 7 6 7 6 7 7 6 5 5 5 6 6 6 6 6 7 6 10 1 3 3 3 4 6 4 9 9 9 6 8 9 8 8 9 8 8
15 14 14 14 15 14 14 13 13 13 14 12 13 12 11 10 8 9 10 8 8 10 10 10 10 10 10 10 10 10 10 10 9 9 9 9 10 9 8 9 10 9 9 10 9 7 7 8 10 8 5 6 7 8 6 7 5 6 6 5 6 7 6 7 6 7 9 8 4 4 4 4 7 7 7 8 8 7 8 9 9 8 8 8 8
15 14 14 15 15 14 14 13 14 14 14 13 13 13 11 10 9 10 10 8 9 9 9 10 9 9 10 10 10 10 10 10 9 9 10 10 10 10 10 10 10 10 10 10 9 8 10 9 10 9 7 8 8 8 7 6 7 7 6 6 6 7 7 6 8 8 7 8 5 7 5 5 7 6 5 5 7 7 8 8 6 7 8 8 9
15 15 15 16 15 15 15 14 14 14 14 13 14 13 12 11 9 11 10 10 10 9 9 9 9 10 11 11 11 11 11 11 10 10 10 10 10 10 10 10 10 10 10 10 9 10 10 11 11 8 8 9 9 9 9 9 8 7 8 7 7 7 6 7 8 7 7 9 7 4 3 4 4 4 3 5 5 6 5 7 8 9 8 8 7
15 15 15 15 14 15 15 14 15 15 15 14 14 14 13 12 11 11 11 12 11 10 10 9 10 11 12 12 12 12 11 10 11 11 11 10 10 10 10 10 11 11 10 10 10 9 10 11 10 8 9 11 12 11 9 10 8 8 9 8 8 7 7 8 7 7 8 10 8 8 3 6 5 6 5 6 6 6 6 7 5 6 6 7 8
16 16 16 16 14 16 16 16 15 15 14 14 13 12 13 13 13 13 12 12 12 11 11 11 10 11 12 11 12 12 11 11 11 11 11 10 11 11 11 11 10 10 10 11 10 10 11 10 10 10 11 12 12 12 10 9 8 10 10 10 7 6 8 8 8 8 8 9 8 8 7 5 6 8 5 5 6 7 8 7 9 8 6 8 10
16 16 16 16 16 17 16 15 15 15 14 13 13 13 12 12 13 12 11 12 12 12 12 12 12 11 12 12 12 11 10 10 11 11 10 11 11 11 11 11 11 11 10 10 10 11 11 11 11 11 12 12 12 11 9 10 9 10 10 8 7 7 9 8 7 8 8 8 9 10 7 7 4 5 1 2 4 7 8 7 10 9 9 8 9
16 16 16 16 16 15 14 13 13 13 14 13 13 13 13 12 12 11 11 12 11 12 12 12 11 12 12 12 12 11 11 11 10 11 11 12 11 12 12 12 12 11 11 10 10 11 11 11 12 12 13 15 16 14 13 11 9 10 11 8 8 8 8 7 7 8 8 8 9 7 7 7 7 6 7 7 10 13 5 7 10 10 6 5 8
15 15 15 16 14 14 14 13 13 13 13 14 14 13 12 12 12 12 12 12 12 12 11 11 12 13 13 12 12 11 11 10 13 18 15 12 11 11 10 11 12 11 10 10 10 11 12 12 12 16 17 17 17 17 17 16 16 13 11 8 10 9 9 8 8 8 9 9 10 10 10 11 10 9 11 11 9 6 5 6 10 11 4 8 7
15 15 15 15 14 13 12 13 12 13 13 13 12 13 13 12 12 13 13 13 13 12 11 12 13 13 13 13 13 12 11 11 17 16 18 19 14 11 12 11 10 11 11 11 11 11 11 12 12 13 14 14 15 18 18 19 18 19 19 17 13 12 10 10 10 9 9 10 10 9 10 12 12 10 10 10 7 9 10 7 9 6 8 9 12
15 14 14 13 13 13 13 12 12 13 12 13 13 13 13 13 13 13 13 13 13 11 12 13 13 13 12 13 13 13 12 15 17 17 18 19 17 14 11 10 10 10 10 11 11 11 11 11 10 9 10 12 12 13 16 19 19 19 20 20 19 18 16 14 12 10 10 11 11 12 11 12 13 10 10 9 11 9 8 6 7 8 9 10 9
14 13 14 14 14 13 13 13 14 13 14 14 13 12 13 13 14 13 14 13 11 12 13 13 13 13 13 13 14 14 12 15 17 18 18 19 20 17 11 11 10 10 10 11 12 12 11 10 10 10 10 15 13 13 13 13 16 20 20 20 20 20 19 19 19 16 11 11 13 14 12 12 13 13 11 11 6 7 5 8 9 9 10 11 11
14 15 15 15 14 14 14 14 14 14 14 13 13 13 14 15 14 13 12 12 13 14 13 14 14 13 13 14 13 13 13 15 17 18 18 18 18 16 13 12 11 10 11 12 11 12 12 11 11 11 11 10 11 13 13 13 12 11 12 13 14 18 20 20 20 21 18 14 13 15 14 11 14 13 10 6 7 10 9 11 10 11 11 15 14
14 15 15 14 14 14 14 14 14 14 14 14 14 14 15 14 14 13 13 14 15 15 14 14 14 14 14 14 13 13 13 17 16 18 18 18 17 14 11 11 11 11 12 11 12 12 11 11 12 13 12 11 11 13 13 13 12 12 12 12 14 15 15 14 14 14 14 14 16 18 17 13 14 14 12 8 11 12 12 14 13 13 11 6 5
14 14 14 14 14 14 14 14 14 14 14 14 14 15 14 15 15 14 13 13 13 12 12 13 15 15 14 13 13 14 13 17 17 18 18 17 16 10 10 11 12 13 13 12 12 11 11 12 12 13 13 12 14 18 17 13 12 13 13 13 13 13 14 13 16 17 16 15 15 17 16 16 16 15 14 12 11 10 10 10 7 4 5 9 11
14 14 14 14 14 14 14 15 15 15 15 15 15 15 15 15 14 12 13 14 13 14 14 14 13 13 14 14 15 15 13 15 17 18 18 18 13 9 10 10 11 13 14 13 12 12 12 13 13 12 13 13 15 17 18 16 13 14 14 14 13 13 14 7 14 20 20 21 23 23 22 22 22 22 21 21 17 12 9 10 13 8 10 11 10
13 14 14 14 15 15 15 15 15 15 14 15 15 15 15 14 14 13 14 14 14 15 13 12 13 13 14 15 15 14 13 14 17 17 18 18 16 12 10 11 12 13 13 13 12 12 14 19 17 14 14 14 16 18 18 15 14 15 14 14 15 15 12 6 8 11 19 23 24 24 25 25 25 26 26 24 20 14 12 16 15 9 10 7 8
12 13 14 14 15 15 15 16 16 15 15 15 15 15 15 15 15 13 14 13 14 12 11 12 12 12 13 14 15 16 13 13 16 17 19 19 17 11 11 11 12 13 11 12 12 12 13 14 19 18 16 16 18 17 18 15 14 14 14 14 16 16 11 8 12 12 10 10 12 13 16 19 19 19 21 26 23 17 15 17 14 5 7 9 9
13 13 13 13 14 14 14 15 15 15 15 15 14 14 14 13 12 12 12 12 12 11 11 11 13 13 12 12 12 13 13 12 12 18 19 20 21 13 10 11 13 13 12 11 11 12 13 13 14 17 20 21 20 18 18 18 16 15 13 14 15 17 10 12 12 9 9 11 13 12 13 12 14 15 16 15 14 15 17 16 11 4 8 11 14
3 6 7 10 11 13 12 13 15 14 14 15 14 14 12 13 13 12 13 12 11 11 12 11 12 12 11 11 11 11 11 12 11 18 19 21 21 19 11 13 12 11 11 11 11 12 12 11 10 13 18 20 21 21 20 19 18 16 15 14 15 17 11 6 3 6 8 13 11 9 8 9 12 13 13 11 11 11 13 14 14 14 14 14 14
2 4 7 10 12 12 12 12 13 13 13 13 12 12 12 12 12 12 11 11 12 12 11 11 10 10 10 10 10 10 11 15 10 15 19 20 21 23 14 13 13 11 12 11 11 11 12 11 10 13 18 19 19 19 21 19 19 13 16 19 21 18 13 3 6 2 9 10 6 6 8 10 11 13 11 9 10 11 13 12 12 15 17 17 17
3 4 6 9 10 12 12 13 12 10 11 13 13 13 12 12 12 11 11 11 11 11 11 10 10 9 9 8 8 8 8 9 15 12 17 20 21 22 23 17 17 13 12 12 11 12 11 10 11 15 15 15 14 16 16 17 13 12 19 20 20 21 11 3 8 5 12 14 10 12 12 12 13 13 11 10 10 11 11 10 9 12 14 16 18
1 3 5 8 9 10 12 13 13 12 13 13 13 12 11 10 10 10 10 10 10 10 9 9 9 9 9 8 7 7 7 8 11 16 15 21 20 22 23 23 18 13 13 12 10 10 9 9 7 5 6 8 10 11 12 10 9 14 13 14 15 13 7 4 6 11 10 15 12 13 13 13 13 12 12 10 9 10 10 9 10 12 14 15 18
1 0 4 6 8 8 9 10 12 12 12 12 12 11 10 8 9 8 8 9 9 9 8 8 9 9 8 8 7 6 7 8 7 12 17 18 21 21 22 22 21 18 13 11 9 7 2 3 5 5 4 4 4 4 4 7 9 11 12 12 9 6 6 2 5 9 12 12 12 12 12 13 14 13 12 12 10 10 10 9 8 10 13 16 17
3 4 1 4 6 7 8 8 9 10 11 10 11 11 11 10 10 8 9 9 9 9 8 8 8 8 8 7 6 7 6 6 7 7 8 10 12 16 18 18 18 16 11 8 9 9 7 5 5 4 3 3 4 3 3 2 4 7 8 5 3 4 2 2 6 9 8 9 9 10 11 12 12 12 11 10 10 11 12 12 10 10 10 11 13
3 3 3 2 3 5 7 8 8 7 7 7 7 7 8 8 9 8 8 8 8 7 7 7 7 7 7 6 6 6 7 7 7 4 5 7 7 8 8 9 10 7 6 9 10 10 9 5 4 4 4 6 6 5 5 5 4 3 2 2 2 2 2 3 5 7 8 8 9 9 9 9 9 10 11 11 12 12 11 12 11 13 11 12 13
3 3 3 1 3 4 5 7 8 6 5 6 6 6 6 6 7 8 8 9 8 8 7 7 8 8 8 7 7 6 7 7 5 6 6 6 6 6 7 7 7 8 8 6 4 3 3 1 2 2 1 1 1 1 1 2 2 2 2 2 2 2 3 4 4 4 6 8 8 8 9 8 9 11 11 11 13 14 12 12 12 13 12 11 12
2 3 4 1 2 2 3 3 5 6 7 9 9 7 4 3 1 2 3 1 3 7 8 7 7 7 8 8 8 7 4 6 6 2 4 4 6 7 7 6 5 5 4 6 4 4 3 3 4 4 4 4 3 4 3 3 3 2 3 3 3 3 2 1 3 3 5 6 8 9 10 9 10 10 11 12 13 14 13 13 13 13 13 12 17
4 4 3 2 1 4 5 6 7 7 7 7 8 9 12 12 8 4 2 7 6 4 1 5 6 5 5 3 1 5 8 5 8 10 10 10 9 8 8 8 7 7 7 10 7 5 4 5 4 4 4 4 4 4 4 4 4 5 4 3 3 3 3 2 3 4 5 5 6 7 8 9 10 10 11 12 13 13 13 13 15 13 15 16 17
4 5 5 4 2 3 6 7 7 6 6 7 7 9 8 12 17 16 11 10 11 12 9 4 5 9 9 6 6 11 11 13 12 12 13 12 11 11 11 11 12 13 11 8 5 5 5 6 5 4 4 4 4 4 4 5 5 5 6 6 5 5 5 5 5 4 5 5 6 7 8 8 10 10 11 12 13 14 13 12 13 14 15 16 17
5 5 4 4 3 3 6 7 7 7 6 6 7 8 8 9 11 16 16 16 17 16 14 13 12 13 14 14 11 6 9 11 14 13 13 13 13 12 11 11 10 9 4 8 8 6 5 6 5 5 4 4 3 3 4 5 5 5 6 7 8 7 6 7 7 7 7 7 7 8 8 8 9 9 10 11 12 12 13 14 13 13 14 14 15
6 5 4 4 4 5 7 7 7 7 8 7 7 6 7 8 10 9 11 15 18 18 18 16 15 15 15 14 14 14 12 9 13 16 15 15 15 14 14 13 11 8 12 9 8 6 5 5 5 3 4 3 4 4 4 4 5 5 5 5 6 7 7 7 7 7 6 7 8 8 8 9 10 10 10 11 11 13 12 13 13 13 15 16 17
6 5 4 5 4 5 5 6 7 7 6 7 7 8 8 9 9 8 9 8 11 14 16 15 14 18 17 16 15 14 14 14 14 14 13 14 13 14 14 10 14 14 12 7 6 6 5 5 3 2 2 2 3 4 3 4 4 4 5 5 5 6 7 7 7 7 7 8 8 8 9 9 9 11 11 11 10 12 13 13 13 13 14 14 14
6 8 12 8 5 5 5 6 7 8 8 8 9 10 10 9 9 9 9 10 10 10 8 7 12 15 12 11 12 14 13 13 13 13 15 14 13 9 10 9 9 8 8 6 5 5 5 3 2 2 3 3 3 4 4 4 4 3 4 5 5 5 6 6 6 7 8 8 8 9 10 11 11 10 11 12 12 12 11 11 11 11 12 12 11
6 6 6 7 7 6 6 6 6 7 9 8 8 8 8 9 10 9 8 8 9 9 7 7 6 8 15 14 13 13 15 14 13 12 10 10 8 7 9 7 6 5 5 4 4 2 2 1 1 1 2 2 2 3 2 3 3 3 3 4 4 5 6 6 7 8 8 8 8 9 9 9 10 12 12 13 13 14 12 13 12 13 13 14 13
7 7 7 6 6 7 8 8 8 8 8 8 8 8 8 8 9 8 8 9 9 8 7 6 6 7 9 7 10 13 14 13 12 9 8 7 9 8 7 6 5 5 5 3 3 2 2 0 0 0 1 1 2 3 2 2 2 3 3 3 4 5 5 6 6 6 7 8 9 9 10 10 10 10 11 13 11 12 12 13 12 13 13 15 15
9 7 6 6 7 9 8 9 9 10 8 7 7 8 8 8 8 8 9 9 8 8 8 7 7 6 6 5 6 5 8 9 10 9 7 8 8 7 6 6 5 5 5 3 2 1 1 2 0 1 1 1 1 2 2 2 3 3 5 5 5 5 7 7 7 6 6 7 8 8 9 10 10 11 11 12 13 14 13 13 14 14 14 14 12
10 14 15 14 10 8 7 7 7 7 7 7 8 8 8 8 8 9 10 9 9 8 8 8 8 7 5 3 4 3 7 8 8 6 6 5 5 6 6 6 6 6 5 4 3 2 2 3 2 0 1 2 2 2 3 3 3 4 5 5 6 5 6 6 6 7 7 7 8 8 8 8 9 10 10 11 11 12 13 14 13 13 14 12 11
9 8 10 13 10 10 9 9 8 8 8 8 8 8 10 9 9 10 9 10 10 9 8 8 8 8 7 5 4 6 9 7 6 5 5 6 6 6 6 6 6 6 5 5 5 3 3 3 2 2 2 2 2 3 3 4 4 4 4 4 5 5 5 5 5 6 7 8 7 8 8 9 9 9 9 9 10 10 11 12 12 13 13 12 11
9 9 9 10 10 10 10 10 9 9 9 9 9 9 10 9 9 9 9 9 9 8 9 9 8 7 8 11 13 11 8 6 5 6 6 6 6 7 6 6 5 5 5 4 4 3 3 3 3 3 3 3 3 4 4 4 5 5 4 4 3 4 5 5 6 6 7 7 7 8 8 8 8 8 9 9 9 9 9 9 10 10 10 10 11
10 9 10 8 10 10 10 10 9 11 11 10 10 9 9 9 8 8 9 10 10 9 9 8 8 8 11 17 14 13 9 7 6 7 7 7 7 7 7 6 6 6 7 7 7 7 6 5 4 5 5 6 5 5 5 5 4 4 4 4 4 5 6 6 6 6 7 7 7 7 8 8 8 8 8 8 8 9 9 10 9 9 9 10 10
10 9 9 9 10 10 10 9 9 10 10 10 10 10 10 10 9 9 9 9 8 8 8 7 7 7 9 12 12 11 8 7 7 6 6 6 6 6 7 7 7 6 7 6 6 7 7 7 7 8 8 8 9 8 6 5 4 3 4 4 5 5 5 6 6 7 7 7 8 8 8 7 7 6 7 8 9 10 10 11 11 11 11 10 10
10 10 9 10 10 10 9 9 10 10 10 12 12 10 9 9 9 9 9 9 9 8 8 7 6 7 6 7 8 8 7 7 6 6 6 6 7 7 6 7 7 7 7 7 8 7 7 7 7 7 8 8 8 7 6 6 5 6 6 6 5 6 5 6 6 7 6 7 7 8 8 8 8 6 6 7 8 9 10 10 10 10 10 10 10
10 10 9 9 9 10 9 9 9 10 10 10 9 9 8 8 8 8 9 9 9 9 8 8 7 7 7 8 8 8 7 7 7 7 7 7 6 7 6 7 7 7 7 8 8 8 8 8 8 7 8 7 7 7 7 7 7 7 6 6 6 6 6 6 6 6 6 5 6 7 7 7 7 7 7 7 7 7 8 8 8 9 10 10 9
10 10 10 9 9 9 9 8 8 9 9 9 10 9 9 9 9 9 9 9 9 8 8 8 7 7 7 7 7 8 7 7 7 7 7 6 6 7 7 7 7 8 8 9 9 10 8 8 8 8 8 6 8 8 7 7 7 7 7 6 6 5 6 6 7 6 5 4 5 4 6 6 6 6 8 7 6 6 6 7 7 8 7 8 9
10 10 9 9 10 9 9 8 8 9 9 9 9 9 9 8 8 9 9 10 9 8 8 7 7 7 7 7 7 7 7 7 7 7 7 7 7 8 8 8 7 7 7 8 8 8 8 9 8 8 8 8 8 9 8 7 7 7 6 6 6 7 6 7 7 7 7 6 5 4 4 5 5 6 7 7 6 7 6 6 7 7 7 7 7
10 10 9 9 9 9 9 8 10 10 9 9 9 9 9 8 9 9 8 8 8 8 8 7 8 7 8 7 7 7 7 7 7 8 7 7 7 7 7 8 8 7 7 8 8 8 8 9 9 9 9 9 10 9 9 8 8 9 8 7 7 9 12 12 8 8 6 7 6 5 2 3 4 4 5 5 5 5 6 6 5 5 6 6 6
10 10 10 9 9 9 9 8 8 7 7 8 9 10 9 9 9 8 9 9 9 8 8 7 7 7 7 7 7 7 7 7 7 7 7 7 7 6 7 7 8 7 7 8 8 9 9 8 9 7 8 9 10 10 9 9 10 8 9 8 12 20 17 15 10 8 10 7 6 6 4 2 3 3 2 2 3 4 4 4 4 4 3 4 4
11 10 11 11 10 9 8 8 8 8 8 7 8 9 9 9 9 8 9 8 8 8 8 7 8 7 7 7 8 7 7 7 7 7 7 7 7 6 7 7 7 7 8 8 7 8 8 8 9 9 7 9 9 8 8 7 9 10 9 11 18 18 17 17 14 14 10 6 7 6 6 5 3 3 2 1 0 2 2 3 3 2 3 3 3
12 12 12 11 11 10 9 9 9 9 9 9 9 9 9 9 9 8 8 8 8 8 8 7 7 7 7 7 7 7 7 7 7 7 7 7 7 7 8 8 8 8 8 8 7 7 8 8 8 9 9 10 9 7 8 9 10 11 14 18 18 18 18 16 12 15 16 11 5 6 6 6 4 5 4 2 1 0 0 0 1 2 2 2 2
Wind_Direction
189 192 188 193 190 191 192 194 198 198 197 196 198 201 201 201 202 204 186 197 192 193 197 200 199 202 203 205 207 206 208 210 206 203 203 209 211 210 207 202 213 223 218 220 215 210 213 221 227 227 216 225 235 238 231 220 198 203 193 192 217 207 188 199 221 257 279 232 235 244 249 196 238 211 227 230 229 222 221 228 226 225 226 228 230
191 190 190 191 192 191 192 193 195 196 198 198 202 201 200 201 201 191 195 200 192 199 202 202 202 201 203 207 208 210 211 211 207 201 204 207 212 208 210 207 214 221 214 224 218 218 217 224 231 229 212 221 230 236 235 235 216 210 203 193 213 219 202 196 231 236 261 269 266 254 260 194 232 194 209 220 232 216 221 227 223 220 226 227 228
190 188 189 190 194 193 191 193 193 196 198 201 205 204 203 203 194 196 201 198 197 202 204 205 204 201 206 208 208 211 213 213 209 204 206 205 208 211 210 210 214 217 219 223 221 216 221 225 233 228 213 223 230 234 231 233 223 218 224 200 213 221 207 209 213 239 251 261 210 242 230 214 210 227 215 222 226 211 221 227 224 221 223 223 228
189 188 189 192 192 191 193 194 194 195 199 202 205 206 203 202 196 202 204 200 199 205 204 207 206 205 208 211 210 212 213 214 212 210 209 207 210 212 211 212 216 219 220 223 220 214 220 226 233 225 218 224 233 234 233 230 226 222 219 213 211 219 214 206 217 227 237 250 256 212 226 208 243 245 233 225 224 220 219 233 231 232 227 223 226
188 189 189 191 191 192 194 193 195 197 200 202 205 204 204 201 198 204 202 205 207 202 206 204 207 207 211 213 213 213 214 211 212 213 213 212 213 214 214 214 217 219 220 222 218 217 221 224 231 223 219 226 235 233 230 228 227 222 228 215 209 213 212 211 219 217 234 239 254 242 224 233 243 250 224 224 242 238 237 229 225 228 232 230 229
189 189 190 191 191 192 194 195 198 199 200 202 205 205 204 202 201 204 202 207 208 206 204 204 206 209 213 215 215 216 214 212 213 214 213 213 215 218 218 217 219 220 221 222 221 219 223 227 229 221 219 223 232 232 229 231 228 227 230 228 218 203 213 221 215 217 223 241 239 261 241 229 253 240 214 208 225 240 247 246 251 239 232 243 236
188 189 190 192 190 194 195 197 197 197 199 202 203 204 205 204 205 206 202 207 206 207 206 206 209 210 215 216 218 217 215 214 216 215 215 214 215 217 219 221 221 222 224 222 222 222 224 227 226 221 223 225 230 231 229 231 229 232 228 229 221 206 219 224 216 219 223 237 246 239 249 240 218 247 236 205 223 226 231 240 251 237 224 227 244
189 191 191 193 194 196 197 197 197 197 197 199 202 204 205 206 209 209 205 208 209 208 208 207 210 212 216 217 220 218 216 218 220 218 214 213 215 218 219 220 222 224 226 224 222 225 226 227 228 224 225 228 228 233 224 230 229 238 235 226 218 210 222 227 223 225 232 236 240 250 238 243 244 247 291 150 233 256 231 223 242 244 233 227 232
189 190 191 194 197 196 195 196 197 197 198 198 201 203 204 207 208 210 210 212 212 213 212 210 210 215 219 219 222 219 218 220 219 218 216 216 215 219 218 221 221 223 224 225 224 226 229 230 230 230 227 230 229 230 227 222 221 232 239 224 226 217 226 228 228 228 239 241 251 249 257 251 244 237 233 222 219 233 203 197 240 249 246 252 247
189 190 193 196 196 195 194 194 195 196 197 200 201 201 202 204 207 210 211 213 214 213 213 213 214 216 218 220 221 221 222 223 221 215 213 214 214 218 220 222 222 223 224 225 227 225 229 230 234 233 231 231 232 233 233 230 226 227 235 219 225 225 225 227 227 229 235 243 244 245 247 248 244 232 239 237 237 253 234 203 227 244 249 258 273
189 190 194 196 195 194 193 197 194 197 200 201 201 200 201 202 206 210 211 212 214 213 211 214 217 219 219 220 221 221 223 225 220 213 214 214 213 216 219 222 221 223 224 225 227 228 229 230 235 236 233 234 235 235 235 233 232 233 237 234 223 218 226 227 232 227 230 238 246 242 244 253 249 241 240 248 239 231 235 225 236 241 231 243 255
188 190 193 195 193 191 194 194 195 199 198 202 201 201 201 202 206 209 211 213 215 213 214 216 219 220 221 224 226 224 226 225 219 215 213 213 213 217 219 222 220 221 224 226 231 230 232 232 233 234 233 231 230 235 236 236 235 234 235 237 237 232 223 220 228 233 227 237 242 240 241 245 252 243 245 238 241 237 236 232 231 231 239 240 245
185 187 193 195 193 191 191 192 195 198 199 201 201 200 202 204 207 209 212 212 213 215 217 217 220 219 220 224 228 228 230 224 218 216 214 213 213 215 225 222 220 223 223 226 230 231 232 234 236 233 236 230 230 234 237 238 233 234 237 240 243 239 237 234 230 232 229 233 238 247 233 242 250 247 233 238 232 243 229 230 229 229 231 239 243
185 190 195 195 193 190 192 193 196 199 197 199 199 200 201 205 206 208 209 208 212 217 217 218 220 220 220 223 228 230 230 228 217 216 216 215 213 209 226 227 227 228 226 227 229 230 230 231 234 238 234 227 228 231 235 238 240 233 233 235 239 242 239 235 237 240 240 239 240 246 243 225 243 249 243 221 219 229 226 235 226 231 229 232 235
188 192 195 195 192 193 193 194 197 197 198 198 199 202 203 206 206 206 206 208 210 214 215 217 221 221 222 222 225 229 231 224 217 214 214 213 212 205 224 228 234 236 234 231 231 231 229 229 233 238 236 229 227 227 229 232 235 237 236 234 234 239 238 233 229 233 235 237 242 246 249 240 244 249 247 221 221 227 224 232 227 229 237 263 282
192 193 195 195 194 193 192 194 197 197 198 199 200 203 204 205 207 205 207 212 214 214 216 216 220 221 221 221 223 231 231 218 214 213 211 210 200 201 216 225 231 237 239 237 235 234 232 231 233 237 237 235 231 225 227 228 233 237 238 240 242 241 240 230 229 230 232 234 238 243 248 246 244 246 242 233 229 228 235 242 242 216 221 240 247
194 194 195 195 195 195 194 195 198 198 198 198 201 203 204 207 210 205 208 212 212 213 215 214 219 220 220 220 222 229 230 219 211 208 207 201 190 206 212 222 230 235 239 238 238 236 235 232 232 237 237 237 233 225 225 220 235 238 241 243 243 246 247 222 221 229 232 235 239 243 247 250 251 249 246 237 231 223 224 239 237 199 221 239 249
195 195 197 196 196 196 195 196 198 199 198 199 201 204 206 208 209 204 206 209 213 215 213 216 217 219 219 222 220 225 228 220 207 205 201 194 189 199 209 217 229 232 238 239 239 240 239 235 233 235 237 240 232 225 223 213 231 237 241 244 247 247 249 220 234 227 227 232 234 238 241 244 247 249 249 244 235 221 222 237 238 203 229 251 263
198 197 199 198 198 196 196 197 199 199 199 202 202 203 204 206 208 204 208 210 215 214 212 216 219 220 222 224 222 222 229 224 206 201 197 192 192 203 203 213 226 231 232 238 237 241 244 240 235 234 238 240 235 228 222 211 229 234 237 243 247 249 243 219 232 235 233 236 243 242 249 247 249 249 250 246 240 230 231 241 249 186 204 224 224
204 202 199 199 199 199 197 198 200 199 201 203 203 205 206 207 208 205 208 209 213 213 212 215 218 222 221 221 221 220 224 226 206 199 194 194 193 197 204 210 224 227 229 232 237 239 241 244 239 231 234 240 241 236 228 214 224 236 236 241 247 252 237 230 235 235 251 250 248 238 240 248 250 249 251 252 244 233 234 236 245 205 201 222 221
224 209 195 197 201 201 200 198 199 201 201 203 204 205 203 205 206 204 206 206 210 212 213 215 218 224 221 219 221 219 218 222 211 192 197 195 196 196 208 214 220 221 225 229 232 238 242 240 243 233 227 231 234 237 236 229 224 235 239 242 244 247 242 224 307 38 281 264 264 269 262 251 249 251 251 251 246 240 236 228 208 211 212 225 228
224 220 207 198 197 198 200 201 201 202 203 202 203 207 207 205 205 205 206 205 207 211 212 214 217 222 221 220 220 221 216 210 211 195 197 198 197 199 207 217 213 217 225 231 232 238 241 242 242 235 231 229 230 233 236 237 233 232 246 249 256 261 256 191 100 210 266 272 276 272 268 264 263 260 256 250 247 244 242 234 208 208 212 218 220
233 215 211 204 198 197 197 197 197 200 204 202 202 206 203 202 204 201 202 204 206 210 213 212 215 220 221 219 218 216 212 208 203 196 201 200 200 202 210 216 212 215 223 230 228 235 238 241 244 241 241 243 240 239 241 242 243 238 244 252 258 267 282 109 144 190 263 270 273 273 268 265 267 268 269 262 254 252 252 242 223 210 216 220 221
228 203 209 207 204 198 195 195 196 198 200 202 205 206 201 200 199 199 200 201 203 208 211 210 212 217 219 219 212 210 205 204 205 199 197 202 204 204 212 220 217 214 220 230 230 235 238 240 254 280 275 265 256 252 252 247 240 248 254 263 271 280 283 257 165 162 237 266 272 271 273 275 276 274 271 270 267 267 262 248 226 217 217 218 221
325 171 192 207 201 201 194 193 194 194 197 196 201 206 208 192 196 198 195 201 203 205 208 204 209 213 216 218 208 204 204 204 209 206 203 199 205 209 214 218 225 224 227 233 237 247 298 45 36 11 351 335 302 282 263 255 252 256 259 262 272 280 276 168 180 157 209 239 250 258 264 264 264 266 270 271 274 273 271 266 245 231 225 225 224
353 340 286 199 204 189 186 193 194 194 191 191 197 199 199 195 198 193 191 200 200 202 204 200 208 208 212 211 200 200 200 205 213 206 203 208 212 220 220 223 231 235 248 283 298 309 300 321 350 338 328 12 5 353 329 312 282 267 266 256 228 239 221 168 168 185 207 237 242 245 248 258 267 269 272 278 276 268 270 269 263 250 236 235 236
350 354 318 229 201 193 189 184 182 182 181 184 189 191 192 195 200 194 193 196 196 200 197 195 198 199 202 199 197 194 203 208 205 175 168 184 204 209 210 232 232 230 232 243 255 266 288 300 293 286 267 273 269 264 271 284 294 294 276 220 214 215 204 173 180 197 218 237 250 253 255 256 270 280 275 274 270 266 256 259 258 254 241 237 236
18 356 333 269 192 199 200 188 168 158 154 155 162 170 178 189 193 193 191 192 190 195 190 192 192 193 198 192 198 198 212 208 181 177 181 187 196 194 200 207 203 201 216 226 214 244 258 360 16 28 66 72 42 48 21 347 337 340 327 314 282 255 242 229 201 210 221 231 245 261 271 270 267 266 271 268 267 269 266 262 257 260 250 249 248
35 29 0 9 176 180 173 156 131 115 84 65 54 40 17 7 23 121 45 13 220 193 196 197 198 196 196 189 186 209 203 205 214 134 140 162 174 179 194 202 190 181 160 139 118 87 84 76 71 65 63 70 61 50 40 20 4 345 336 341 341 323 311 283 255 237 233 233 240 246 254 261 267 269 268 270 267 269 269 270 265 261 266 249 252
50 24 14 6 134 141 131 118 113 119 120 111 100 77 60 63 41 32 30 2 16 41 115 201 199 173 119 51 345 207 214 194 114 108 109 104 103 116 117 118 130 130 131 135 127 113 108 102 86 82 63 57 51 34 17 4 348 342 342 325 321 323 317 301 276 271 271 262 268 273 273 274 274 274 276 274 279 276 274 269 271 266 264 260 257
34 28 17 13 346 137 129 120 121 118 116 118 112 110 95 54 46 45 53 53 44 40 55 58 144 155 150 125 60 52 84 105 108 109 104 102 106 105 107 111 117 129 136 115 67 91 107 95 85 75 71 63 49 14 357 354 352 346 341 335 335 342 337 330 317 304 296 288 276 270 272 272 273 274 274 275 276 279 278 270 266 265 260 262 262
36 13 7 355 24 89 110 115 118 116 108 110 114 119 107 94 57 40 46 57 55 54 48 54 66 84 107 126 124 63 61 88 104 99 97 93 88 87 84 87 90 89 104 110 89 74 77 88 76 56 50 44 20 4 1 354 348 350 341 342 337 337 335 326 321 318 311 305 300 296 294 288 285 283 279 277 276 275 276 277 271 268 268 266 264
35 24 10 16 30 82 110 117 119 119 124 118 110 99 99 99 97 86 48 59 69 65 50 45 59 70 79 79 90 111 116 101 95 94 93 91 87 85 79 68 71 85 80 66 91 86 70 74 70 49 44 24 356 354 352 350 347 343 341 332 325 324 322 317 316 310 307 307 306 301 301 299 295 293 287 283 277 274 270 268 268 266 264 263 263
33 37 39 25 47 72 97 115 115 107 101 98 97 94 89 94 102 106 105 98 68 57 56 45 54 71 62 71 85 92 100 107 100 96 94 89 86 76 78 73 65 56 80 101 85 93 79 71 61 41 22 15 5 356 353 348 342 331 322 314 308 311 314 317 323 324 324 319 316 310 306 304 303 301 299 291 278 274 274 267 265 264 265 265 270
41 36 45 52 45 57 79 94 104 106 103 104 107 107 110 116 117 114 116 110 105 105 109 75 45 54 79 73 66 77 77 72 76 82 81 79 74 87 91 75 66 47 48 55 78 83 92 84 61 33 24 18 354 350 340 331 319 309 315 315 314 314 316 326 328 326 320 319 316 318 316 311 309 305 304 304 301 294 284 278 272 264 265 265 258
46 51 39 50 59 57 65 75 88 101 110 109 109 108 111 110 101 103 100 91 93 89 60 39 32 46 62 62 67 77 76 69 64 62 63 52 23 43 82 80 79 76 77 56 82 78 86 124 86 351 12 353 336 310 287 281 292 302 305 314 320 326 329 332 328 325 322 320 321 317 317 315 315 314 311 308 299 295 287 280 273 268 262 264 266
45 50 51 50 68 79 74 75 76 86 92 99 100 101 97 94 99 99 90 90 86 85 88 95 87 73 55 51 56 61 67 77 75 69 51 42 49 67 82 92 96 84 80 75 75 77 65 338 140 338 300 261 258 255 263 292 316 317 319 332 331 328 330 325 315 314 321 327 328 326 325 320 317 319 320 314 303 297 292 287 284 281 276 270 269
57 48 51 63 77 78 85 92 100 99 96 93 91 90 89 92 98 91 89 86 79 80 75 65 63 62 69 50 54 76 83 94 91 70 56 51 51 59 65 68 69 71 60 47 41 53 326 293 273 199 244 258 286 322 350 334 344 343 350 344 340 340 316 310 307 317 320 322 323 325 325 325 325 321 316 315 310 309 307 306 306 302 294 279 274
70 58 59 64 65 77 83 86 82 84 87 101 106 105 98 94 84 86 86 84 79 75 74 65 56 44 26 6 49 48 72 57 58 60 49 47 50 56 61 60 59 55 48 34 15 11 327 309 295 262 305 353 10 353 2 4 3 1 353 351 342 327 321 321 323 329 331 329 324 320 320 319 323 323 317 314 315 317 319 320 317 312 304 299 285
77 70 59 67 73 67 75 76 77 79 84 89 86 90 92 88 90 92 93 90 83 75 68 61 54 40 17 10 25 63 78 69 63 61 59 52 49 44 47 46 46 46 37 26 13 357 358 335 324 352 24 19 16 13 20 14 12 359 356 349 328 313 313 319 327 335 334 328 322 319 320 321 323 322 323 326 325 322 326 334 333 331 328 325 318
89 79 72 62 71 79 73 72 71 75 78 77 80 82 84 88 87 85 83 81 81 79 71 65 57 45 36 43 44 54 76 68 57 53 46 48 44 41 40 37 33 31 28 18 12 345 345 339 4 28 20 30 23 23 19 19 11 3 341 308 298 308 324 335 343 338 331 328 324 322 320 322 321 324 325 328 330 334 339 344 349 351 352 351 348
91 89 82 78 71 75 75 71 70 73 76 76 74 78 81 77 80 79 78 78 80 76 74 67 59 54 40 42 44 51 64 58 52 48 42 38 38 39 34 31 30 31 31 27 17 11 359 2 32 30 28 22 21 17 17 15 4 343 329 323 338 346 350 346 339 335 329 327 325 323 320 321 324 326 325 327 338 347 358 359 360 0 5 12 16
85 81 84 82 79 77 81 79 77 76 74 75 76 76 75 76 76 77 78 75 72 70 69 65 56 49 45 33 38 45 57 48 47 42 42 40 38 35 32 31 28 29 30 25 20 15 13 11 18 22 21 23 17 15 9 355 335 322 336 343 350 356 352 343 341 341 338 331 327 322 319 319 323 329 342 350 347 351 354 360 4 8 9 16 24
86 84 81 78 81 80 75 81 81 80 80 84 83 79 76 76 75 73 73 71 67 65 63 59 55 50 46 33 36 44 45 38 35 34 35 35 36 34 31 32 26 28 26 24 18 15 15 16 11 9 11 12 5 351 356 357 349 358 3 355 351 355 354 350 340 334 329 324 320 320 321 321 322 333 355 359 1 2 359 360 3 4 4 12 25
85 83 83 80 78 81 80 77 83 84 84 80 75 72 70 71 74 75 73 73 72 69 64 60 55 53 45 41 40 42 39 41 40 37 35 33 35 33 33 35 32 31 30 26 17 15 18 16 11 5 2 1 358 355 354 356 5 10 5 358 351 347 343 329 316 307 301 303 314 320 322 321 326 337 354 1 4 5 6 9 13 16 20 17 14
86 87 83 83 79 77 78 78 76 81 82 83 84 81 77 73 71 72 76 77 76 75 70 66 60 55 51 50 47 45 40 41 40 37 34 29 31 32 34 36 34 31 30 27 21 20 17 17 9 6 355 355 355 353 353 350 359 4 2 359 351 337 321 316 307 304 302 308 311 309 313 318 333 337 351 358 359 7 11 9 11 15 20 26 27
83 81 83 82 84 82 79 81 79 79 81 82 81 83 79 76 74 74 74 77 76 72 71 68 64 61 58 55 53 51 45 44 43 37 32 32 33 30 30 29 32 34 32 29 26 21 18 19 11 7 2 358 352 351 351 351 352 355 356 352 350 340 336 328 317 308 306 304 290 287 315 317 331 340 347 357 4 4 3 11 12 13 12 21 27
83 84 82 81 83 83 81 80 82 82 79 80 81 80 79 77 75 73 68 69 70 69 68 64 62 61 60 55 52 52 47 45 42 41 35 31 29 33 33 33 34 34 35 33 28 24 21 18 14 12 12 5 2 352 348 347 353 351 349 345 345 343 332 330 321 315 309 307 291 291 300 320 320 337 345 356 3 357 7 358 4 14 14 13 16
90 89 86 82 78 79 80 78 73 69 73 78 75 71 68 68 66 66 67 67 65 62 62 61 61 61 61 59 55 50 47 46 44 39 37 31 27 25 31 34 35 32 35 34 30 28 24 18 14 10 13 12 6 3 356 351 349 346 345 343 339 338 335 334 329 319 315 301 299 291 292 291 302 318 329 358 11 1 3 359 5 1 11 16 21
92 90 91 87 83 79 75 72 67 66 65 62 69 73 72 71 70 70 71 70 68 63 59 60 60 56 57 56 53 48 46 44 41 38 35 34 30 26 30 32 33 32 32 30 28 25 23 20 17 16 8 11 3 358 354 354 353 347 346 339 336 337 337 334 329 335 336 323 303 290 283 286 289 274 259 277 354 57 28 355 356 1 11 23 16
95 94 92 90 90 88 85 84 82 81 79 80 81 82 81 81 79 77 75 74 71 71 67 63 59 61 58 58 58 55 51 47 42 37 35 31 30 28 29 29 29 28 26 25 21 22 19 21 17 16 13 8 1 351 355 0 358 351 342 342 348 349 347 344 339 331 331 329 291 286 276 275 281 298 293 293 290 308 216 193 3 10 11 30 33